STARLINK-31432, 59932

Orbit data source: Space-Track

STARLINK-31432, 59932 is a payload satellite owned by SpaceX/Seattle (US) in LEO that was launched on Sat, 01 Jun 2024 UTC via an FALCON 9 launch vehicle from the Air Force Eastern Test Range (AFETR). Payload-class satellites include a variety of spacecraft equipped with specific instruments for various scientific and technological missions. These include communications satellites like Starlink; space stations such as the ISS; scientific satellites like the Hubble; Earth observation satellites from companies like Planet Labs, Umbra, and HawkEye 360; GPS; miniature CubeSats for education and research; and military/defense satellites.

Loading next visibility...
Identifier
59932, 2024-106L
Orbit
LEO
Country
Flag of USUS
Related business
Manufacturer
SpaceX/Seattle
Mission
Operational Commercial Communications
Bus & Motor
STARLINK V2M, Unknown motor
Mass
730 kg wet, ~700 kg dry
Launch date (UTC)
2024-06-01 (2 years ago)
Launch vehicle
FALCON 9
Launch site
Air Force Eastern Test Range (AFETR)
Object type
Payload
Rocket body
Debris
Shape & HBR
Box + 2 Pan, 17.7 m
Radar Cross Section
33.884 m², Large (>1 m²)

Expand to show TLE details & history
Last TLE update: 13 hours ago

TLE from 13 hours ago
0 STARLINK-31432
1 59932U 24106L   25346.75038236 -.00026655  00000-0 -96309-3 0  9991
2 59932  43.0007 103.7674 0001649 299.2002  60.8685 15.27561196 87210
Epoch: 2025-12-12T18:00Z
TLE epoch observation values (Epoch: 2025-12-12T18:00:33.035Z)
Latitude
-0.00001°
Longitude
111.94222°
Altitude
482.33 km
Speed
7.626 km/s
True Right ascension
06h 55m 04s
True Declination
0° 00' 00"
Sunlit
Object was in full shadow at epoch
Visualization orbit readout
Latitude
Unknown
Longitude
Unknown
Altitude
Unknown
Speed
Unknown
Apparent Right ascension
Unknown
Apparent Declination
Unknown
Sunlit
N/A
Visualization observer readout
Local Sidereal Time
05:25:05
Azimuth
Unknown
Elevation
Unknown
Doppler factor
Unknown
Orbital elements
Apogee altitude
486.182 km
Perigee altitude
483.919 km
Semi-major axis
6,863.187 km
Eccentricity
0.00016
Inclination
43.0007°
RAAN
103.7674°
Arg. of periapsis
299.2002°
True anomaly
60.88501°
Mean anomaly
60.8685°
Eccentric anomaly
60.87675°
Mean motion
3.81728 °/min
Orbital period
94.31 mins
BSTAR
-0.00096309
Loading maneuver chart data...
Computing Atmospheric mass density...
Loading historical data...
Loading historical data...
Loading historical data...
Loading historical data...
Loading historical data...
Loading historical data...
Loading historical data...

Documentation

Showing up to 5 results
|